La Porte, IN

7:47 PM CDT on October 22, 2017 (GMT -0500)
La Porte Municipal

Weather History for KPPO - October, 2012

Change the Weather History Date:

Tuesday, October 9, 2012

  Actual Average (KSBN) Record (KSBN)
Temperature  
Mean Temperature 51 °F -  
Max Temperature 64 °F 62 °F 86 °F (1949)
Min Temperature 39 °F 45 °F 27 °F (1989)
Degree Days  
Heating Degree Days 14    
Growing Degree Days 1 (Base 50)    
Moisture  
Dew Point 35 °F    
Average Humidity 56    
Maximum Humidity 95    
Minimum Humidity 34    
Precipitation  
Precipitation 0.09 in - - ()
Sea Level Pressure  
Sea Level Pressure 29.95 in    
Wind  
Wind Speed 9 mph ()    
Max Wind Speed 23 mph    
Max Gust Speed 31 mph    
Visibility 9.7 miles    
Events Rain    
Averages and records for this station are not official NWS values.
T = Trace of Precipitation, MM = Missing Value Source: Averaged Metar Reports

Daily Weather History Graph

Daily Weather History Graph

Search for Another Location

Airport or City:

Trip Planner

Search our weather history database for the weather conditions in past years. The results will help you decide how hot, cold, wet, or windy it might be!

Date:

Astronomy

Oct. 09, 2012 Rise Set
Actual Time 6:52 AM CDT 6:14 PM CDT
Civil Twilight 6:25 AM CDT 6:42 PM CDT
Nautical Twilight 5:52 AM CDT 7:14 PM CDT
Astronomical Twilight 5:20 AM CDT 7:46 PM CDT
Moon 12:24 AM CDT (10/9) 2:45 PM CDT (10/9)
Length of Visible Light 12h 17m
Length of Day
11h 21m
Last Quarter, 36% of the Moon is Illuminated
Oct 9
Last Quarter
Oct 15
New
Oct 21
First Quarter
Oct 29
Full
Nov 6
Last Quarter

Hourly Weather History & Observations

Time (CDT) Temp. Windchill Dew Point Humidity Pressure Visibility Wind Dir Wind Speed Gust Speed Precip Events Conditions
12:15 AM 40.6 °F 37.5 °F 27.5 °F 59% 30.07 in 10.0 mi South 4.6 mph - N/A   Clear
12:35 AM 40.3 °F 37.1 °F 27.5 °F 60% 30.06 in 10.0 mi South 4.6 mph - N/A   Clear
12:55 AM 39.9 °F 37.8 °F 27.9 °F 62% 30.06 in 10.0 mi South 3.5 mph - N/A   Clear
1:15 AM 39.9 °F 37.8 °F 28.4 °F 63% 30.06 in 10.0 mi SSW 3.5 mph - N/A   Clear
1:55 AM 40.3 °F 36.3 °F 29.1 °F 64% 30.06 in 10.0 mi SSW 5.8 mph - N/A   Clear
2:15 AM 40.6 °F 36.7 °F 29.3 °F 64% 30.06 in 10.0 mi SSW 5.8 mph - N/A   Clear
2:55 AM 40.5 °F 35.8 °F 30.0 °F 66% 30.05 in 10.0 mi South 6.9 mph - N/A   Clear
3:15 AM 41.0 °F 36.4 °F 30.2 °F 65% 30.04 in 10.0 mi SSW 6.9 mph - N/A   Clear
3:35 AM 41.0 °F 35.8 °F 30.2 °F 65% 30.04 in 10.0 mi SSW 8.1 mph - N/A   Clear
3:55 AM 40.8 °F 35.6 °F 30.4 °F 66% 30.03 in 10.0 mi South 8.1 mph - N/A   Clear
4:15 AM 40.6 °F 35.4 °F 30.6 °F 67% 30.03 in 10.0 mi South 8.1 mph - N/A   Clear
4:35 AM 40.1 °F 36.9 °F 30.4 °F 68% 30.04 in 10.0 mi SSW 4.6 mph - N/A   Clear
4:55 AM 39.6 °F 36.3 °F 30.6 °F 70% 30.04 in 10.0 mi SSW 4.6 mph - N/A   Clear
5:15 AM 39.4 °F 35.2 °F 30.7 °F 71% 30.04 in 10.0 mi SSW 5.8 mph - N/A   Clear
5:35 AM 39.4 °F 35.2 °F 31.1 °F 72% 30.03 in 10.0 mi SSW 5.8 mph - N/A   Clear
5:55 AM 39.2 °F 35.0 °F 31.1 °F 73% 30.03 in 10.0 mi South 5.8 mph - N/A   Clear
6:15 AM 39.2 °F 35.0 °F 31.1 °F 73% 30.03 in 10.0 mi SSW 5.8 mph - N/A   Clear
6:35 AM 39.0 °F 34.0 °F 31.6 °F 75% 30.04 in 10.0 mi SSW 6.9 mph - N/A   Clear
6:55 AM 39.2 °F 34.2 °F 32.0 °F 75% 30.04 in 10.0 mi SSW 6.9 mph - N/A   Clear
7:15 AM 39.4 °F 33.8 °F 32.0 °F 75% 30.03 in 10.0 mi SSW 8.1 mph - N/A   Clear
7:55 AM 41.2 °F 36.0 °F 32.9 °F 72% 30.03 in 10.0 mi SSW 8.1 mph - N/A   Clear
8:15 AM 43.2 °F 39.0 °F 33.4 °F 69% 30.03 in 10.0 mi SSW 6.9 mph - N/A   Clear
8:35 AM 45.7 °F 40.2 °F 34.0 °F 64% 30.03 in 10.0 mi SSW 11.5 mph 17.3 mph N/A   Clear
8:55 AM 47.8 °F - 34.5 °F 60% 30.02 in 10.0 mi SSW 11.5 mph 17.3 mph N/A   Clear
9:15 AM 50.0 °F - 34.9 °F 56% 30.02 in 10.0 mi SW 13.8 mph 18.4 mph N/A   Clear
9:35 AM 51.3 °F - 35.1 °F 54% 30.01 in 10.0 mi SW 15.0 mph 21.9 mph N/A   Clear
9:55 AM 52.7 °F - 35.2 °F 52% 30.01 in 10.0 mi SW 17.3 mph 24.2 mph N/A   Clear
10:15 AM 54.9 °F - 35.4 °F 48% 30.01 in 10.0 mi SW 16.1 mph 26.5 mph N/A   Clear
10:35 AM 56.5 °F - 35.6 °F 46% 30.00 in 10.0 mi SSW 15.0 mph 24.2 mph N/A   Clear
10:55 AM 57.7 °F - 35.4 °F 43% 29.99 in 10.0 mi SSW 18.4 mph 27.6 mph N/A   Clear
11:15 AM 58.8 °F - 35.4 °F 42% 29.99 in 10.0 mi SSW 16.1 mph 24.2 mph N/A   Clear
11:35 AM 59.7 °F - 35.4 °F 40% 29.98 in 10.0 mi SW 19.6 mph 26.5 mph N/A   Clear
11:55 AM 60.4 °F - 35.4 °F 39% 29.98 in 10.0 mi SSW 15.0 mph 29.9 mph N/A   Clear
12:15 PM 60.4 °F - 35.1 °F 39% 29.96 in 10.0 mi South 13.8 mph 31.1 mph N/A   Clear
12:35 PM 59.9 °F - 35.1 °F 39% 29.95 in 10.0 mi SSW 16.1 mph 27.6 mph N/A   Clear
12:55 PM 61.5 °F - 35.6 °F 38% 29.94 in 10.0 mi SW 16.1 mph 27.6 mph N/A   Clear
1:15 PM 62.4 °F - 35.4 °F 37% 29.93 in 10.0 mi SW 16.1 mph 27.6 mph N/A   Clear
1:35 PM 62.1 °F - 34.7 °F 36% 29.91 in 10.0 mi SW 23.0 mph 28.8 mph N/A   Clear
1:55 PM 63.5 °F - 35.1 °F 35% 29.90 in 10.0 mi South 17.3 mph 27.6 mph N/A   Clear
2:15 PM 63.7 °F - 35.2 °F 35% 29.89 in 10.0 mi SSW 19.6 mph 24.2 mph N/A   Clear
2:35 PM 63.7 °F - 35.4 °F 35% 29.89 in 10.0 mi SW 21.9 mph 28.8 mph N/A   Clear
2:55 PM 63.5 °F - 34.9 °F 34% 29.89 in 10.0 mi SW 20.7 mph 27.6 mph N/A   Clear
3:15 PM 63.7 °F - 35.2 °F 35% 29.89 in 10.0 mi SSW 18.4 mph 31.1 mph N/A   Clear
3:35 PM 62.6 °F - 35.2 °F 36% 29.88 in 10.0 mi SSW 19.6 mph 31.1 mph N/A   Clear
3:55 PM 62.8 °F - 35.2 °F 36% 29.87 in 10.0 mi SSW 11.5 mph 24.2 mph N/A   Clear
4:15 PM 62.1 °F - 35.1 °F 37% 29.88 in 10.0 mi SW 17.3 mph 26.5 mph N/A   Clear
4:35 PM 61.3 °F - 35.4 °F 38% 29.88 in 10.0 mi SW 16.1 mph 24.2 mph N/A   Clear
4:55 PM 61.7 °F - 35.6 °F 38% 29.88 in 10.0 mi SSW 12.7 mph 24.2 mph N/A   Clear
5:15 PM 61.3 °F - 35.6 °F 38% 29.86 in 10.0 mi SSW 12.7 mph 23.0 mph N/A   Clear
5:35 PM 60.4 °F - 36.1 °F 40% 29.87 in 10.0 mi SW 18.4 mph 25.3 mph N/A   Clear
5:55 PM 59.7 °F - 36.1 °F 41% 29.87 in 10.0 mi SW 18.4 mph 27.6 mph N/A   Clear
6:15 PM 58.5 °F - 36.7 °F 44% 29.87 in 10.0 mi SW 16.1 mph 23.0 mph N/A   Clear
6:35 PM 58.1 °F - 37.0 °F 45% 29.87 in 10.0 mi SW 13.8 mph - N/A   Clear
6:55 PM 57.7 °F - 37.4 °F 47% 29.87 in 10.0 mi SSW 13.8 mph - N/A   Clear
7:15 PM 57.0 °F - 37.6 °F 48% 29.87 in 10.0 mi SSW 10.4 mph - N/A   Clear
7:35 PM 56.3 °F - 37.9 °F 50% 29.88 in 10.0 mi SSW 9.2 mph - N/A   Clear
7:55 PM 55.6 °F - 38.3 °F 52% 29.87 in 10.0 mi South 9.2 mph - N/A   Scattered Clouds
8:15 PM 55.4 °F - 38.7 °F 53% 29.86 in 10.0 mi South 6.9 mph - N/A   Mostly Cloudy
8:35 PM 55.0 °F - 38.8 °F 54% 29.86 in 10.0 mi SSW 9.2 mph - N/A   Scattered Clouds
8:55 PM 55.0 °F - 38.8 °F 54% 29.85 in 10.0 mi SSW 9.2 mph 18.4 mph N/A   Scattered Clouds
9:15 PM 55.4 °F - 38.8 °F 54% 29.85 in 10.0 mi SSW 11.5 mph - N/A   Overcast
9:35 PM 55.6 °F - 39.2 °F 54% 29.86 in 10.0 mi SSW 12.7 mph 17.3 mph N/A   Overcast
9:55 PM 55.6 °F - 39.2 °F 54% 29.85 in 10.0 mi SW 15.0 mph 19.6 mph N/A   Overcast
10:15 PM 55.2 °F - 41.0 °F 59% 29.89 in 10.0 mi NW 18.4 mph 25.3 mph N/A   Overcast
10:35 PM 47.7 °F - 44.8 °F 90% 29.90 in 5.0 mi NW 13.8 mph 19.6 mph N/A Rain Light Rain
10:55 PM 45.7 °F 39.1 °F 42.8 °F 90% 29.90 in 5.0 mi NW 15.0 mph 28.8 mph 0.04 in Rain Rain
11:15 PM 45.5 °F 40.3 °F 43.7 °F 93% 29.90 in 7.0 mi NNW 10.4 mph - 0.01 in Rain Rain
11:35 PM 45.3 °F 41.6 °F 43.7 °F 94% 29.91 in 7.0 mi NW 6.9 mph - 0.03 in Rain Rain
11:55 PM 44.8 °F 39.9 °F 43.3 °F 95% 29.91 in 7.0 mi NW 9.2 mph - 0.05 in Rain Rain